DELTA 1 DEB, 21282

Orbit data source: Space-Track

DELTA 1 DEB, 21282 is space debris in SSO originally from a launch on Thu, 12 Jun 1975 UTC launched from the Air Force Western Test Range (AFWTR). Debris objects in space refer to the collection of defunct objects orbiting the Earth. Examples of debris include non-operational satellites, rocket bodies, and fragments generated from explosions, collisions, or faulty payload assembly.

Loading next visibility...
Identifier
21282, 1975-052T
Orbit
SSO
Country
Flag of USUS
Related business
Manufacturer
Unknown
Mission
Spacecraft
Bus & Motor
Unknown
Mass
Unknown
Launch date (UTC)
1975-06-12 (51 years ago)
Launch vehicle
Unknown
Launch site
Air Force Western Test Range (AFWTR)
Object type
Payload
Rocket body
Debris
Shape & HBR
Unknown shape, 0.1 m
Radar Cross Section
Small (<0.1 m²)

Expand to show TLE details & history
Last TLE update: 9 hours ago

TLE from 9 hours ago
0 DELTA 1 DEB
1 21282U 75052T   26127.07296478  .00000028  00000-0  15510-3 0  9990
2 21282  99.8222  63.2345 0100492  23.8340  41.4653 13.24848562692427
Epoch: 2026-05-07T01:45Z
TLE epoch observation values (Epoch: 2026-05-07T01:45:04.156Z)
Latitude
64.32947°
Longitude
151.04297°
Altitude
1,120.769 km
Speed
7.325 km/s
True Right ascension
02h 48m 56s
True Declination
64° 12' 05"
Sunlit
Object was in daylight at epoch
Visualization orbit readout
Latitude
Unknown
Longitude
Unknown
Altitude
Unknown
Speed
Unknown
Apparent Right ascension
Unknown
Apparent Declination
Unknown
Sunlit
N/A
Visualization observer readout
Local Sidereal Time
19:08:39
Azimuth
Unknown
Elevation
Unknown
Doppler factor
Unknown
Orbital elements
Apogee altitude
1,239.386 km
Perigee altitude
1,087.809 km
Semi-major axis
7,541.735 km
Eccentricity
0.01005
Inclination
99.8222°
RAAN
63.2345°
Arg. of periapsis
23.834°
True anomaly
42.23504°
Mean anomaly
41.4653°
Eccentric anomaly
41.84944°
Mean motion
3.31388 °/min
Orbital period
108.63 mins
BSTAR
0.0001551
Loading maneuver chart data...
Computing Atmospheric mass density...
Loading historical data...
Loading historical data...
Loading historical data...
Loading historical data...
Loading historical data...
Loading historical data...
Loading historical data...

Documentation

Showing up to 5 results
|